This demonstration page uses our WeatherBlox Daily Observations layout. Learn more.

Left ArrowRight Arrow

36.17497, -115.13722

Hourly Observations for November 1, 2020

Temp ( °F °C ) Dew Point ( °F °C ) Humidity (%) Winds ( mph kmh ) Pressure ( in mb ) Visibility ( mi km ) Precip ( " mm )
12:53 am 00:53 Clear 63 17.2 17 -8.3 17 17 Calm 30.17 1022 10 16 0.00 0.00
1:53 am 01:53 Clear 60 15.6 24 -4.4 25 25 WNW 8 13 30.18 1022 10 16 0.00 0.00
1:53 am 01:53 Clear 60 15.6 22 -5.6 23 23 NW 6 9 30.19 1022 10 16 0.00 0.00
2:53 am 02:53 Clear 61 16.1 22 -5.6 22 22 ESE 3 6 30.19 1023 10 16 0.00 0.00
3:53 am 03:53 Clear 62 16.7 21 -6.1 21 21 Calm 30.20 1023 10 16 0.00 0.00
4:53 am 04:53 Clear 60 15.6 21 -6.1 22 22 W 3 6 30.23 1024 10 16 0.00 0.00
5:53 am 05:53 Clear 62 16.7 20 -6.7 20 20 NW 8 13 30.24 1024 10 16 0.00 0.00
6:53 am 06:53 Sunny 62 16.7 22 -5.6 21 21 WNW 5 7 30.27 1025 10 16 0.00 0.00
7:53 am 07:53 Sunny 69 20.6 22 -5.6 17 17 Calm 30.28 1025 10 16 0.00 0.00
8:53 am 08:53 Sunny 72 22.2 19 -7.2 13 13 S 3 6 30.29 1026 10 16 0.00 0.00
9:53 am 09:53 Sunny 76 24.4 17 -8.3 11 11 Calm 30.27 1025 10 16 0.00 0.00
10:53 am 10:53 Sunny 80 26.7 16 -8.9 9 9 Calm 30.26 1025 10 16 0.00 0.00
11:53 am 11:53 Sunny 83 28.3 15 -9.4 8 8 NE 5 7 30.22 1024 10 16 0.00 0.00
12:53 pm 12:53 Sunny 85 29.4 15 -9.4 7 7 SE 3 6 30.19 1022 10 16 0.00 0.00
1:53 pm 13:53 Sunny 85 29.4 16 -8.9 7 7 ESE 8 13 30.17 1022 10 16 0.00 0.00
2:53 pm 14:53 Sunny 85 29.4 17 -8.3 8 8 E 6 9 30.17 1022 10 16 0.00 0.00
3:53 pm 15:53 Sunny 84 28.9 17 -8.3 8 8 Calm 30.15 1021 10 16 0.00 0.00
4:53 pm 16:53 Clear 81 27.2 21 -6.1 11 11 SW 5 7 30.15 1021 10 16 0.00 0.00
5:53 pm 17:53 Clear 78 25.6 23 -5 13 13 WSW 3 6 30.16 1021 10 16 0.00 0.00
6:53 pm 18:53 Clear 74 23.3 25 -3.9 16 16 WNW 6 9 30.17 1022 10 16 0.00 0.00
7:53 pm 19:53 Clear 71 21.7 24 -4.4 17 17 WNW 6 9 30.17 1022 10 16 0.00 0.00
8:53 pm 20:53 Clear 70 21.1 24 -4.4 18 18 W 8 13 30.17 1022 10 16 0.00 0.00
9:53 pm 21:53 Clear 70 21.1 23 -5 17 17 W 5 7 30.16 1022 10 16 0.00 0.00
10:53 pm 22:53 Clear 65 18.3 24 -4.4 21 21 S 3 6 30.16 1021 10 16 0.00 0.00
11:53 pm 23:53 Clear 64 17.8 26 -3.3 24 24 Calm 30.16 1021 10 16 0.00 0.00

Powered by AerisWeather